Theta_e
331 330 331 329 330 331 329 329 329 328 329 327 328 326 325 326 325 326 326 325 325 325 325 325 325 325 325 326 326 325 326 326 326 327 329 329 328 325 321 325 327 331 332 330 329 328 327 326 324 323 323 322 321 322 322 321 319 319 319 319 318 317 316 316 316 315 315 315 315 315 315 314 313 313 313 313 312 312 312 312 311 311 310 310 310
331 330 330 330 330 331 330 329 328 328 327 326 325 325 324 324 325 325 325 325 324 324 324 324 324 324 324 324 325 324 324 324 325 326 327 328 328 329 318 323 325 329 331 330 329 329 329 328 326 323 323 323 323 321 321 322 321 320 319 318 318 318 317 316 316 315 315 315 315 315 315 314 314 313 313 313 313 312 311 312 312 310 310 310 310
331 331 330 330 330 330 329 328 328 328 327 326 326 325 324 324 324 324 323 324 323 324 323 322 323 324 324 324 323 324 323 323 324 325 325 326 327 328 327 318 323 326 330 330 330 329 329 329 328 326 325 324 326 324 322 322 322 321 320 319 319 318 318 317 316 316 315 315 315 314 314 314 314 313 313 313 313 312 311 311 311 311 310 309 310
332 332 331 330 330 329 329 328 328 328 327 326 325 324 323 324 325 325 325 324 323 323 324 322 322 323 324 324 324 323 322 323 324 324 325 325 325 326 327 327 319 321 324 329 330 329 328 329 329 328 327 327 327 326 325 324 323 322 321 320 319 319 319 318 317 316 316 315 315 314 314 314 313 313 313 312 312 312 312 311 311 310 310 310 309
332 332 331 330 330 330 329 329 329 328 327 326 326 325 323 322 323 324 323 322 321 322 324 322 321 321 322 323 322 322 322 322 323 323 324 325 325 325 326 326 327 318 318 321 327 331 329 328 328 328 328 327 328 328 327 325 325 324 323 322 321 320 319 318 317 316 316 316 316 316 314 314 314 313 313 313 312 312 312 311 310 311 310 310 309
332 332 332 330 330 330 330 329 329 329 328 326 324 323 321 321 321 321 318 320 320 320 320 320 320 320 321 322 321 321 321 321 322 322 324 324 325 325 325 325 325 326 327 319 320 323 328 330 331 328 329 329 329 327 328 328 325 325 323 323 323 321 321 320 318 318 317 317 317 316 314 314 314 314 313 312 312 312 311 311 311 310 310 310 309
332 331 331 331 329 329 329 329 329 329 327 325 323 323 322 321 320 318 319 318 318 319 319 319 319 319 320 320 320 320 320 320 322 322 323 324 324 324 324 324 325 325 326 326 317 319 322 327 328 328 328 328 328 329 329 327 327 325 324 325 325 323 322 322 320 320 319 318 317 316 315 315 314 313 313 313 312 312 311 311 310 310 310 310 309
332 332 330 330 329 328 329 329 329 328 326 324 323 322 321 321 320 319 317 317 317 317 318 319 319 318 320 319 319 319 319 320 320 321 322 323 323 323 324 324 325 325 322 325 325 322 319 320 324 326 327 329 328 329 329 329 328 328 326 325 325 325 324 322 322 321 321 320 318 317 317 315 315 315 314 314 313 312 311 311 311 310 310 310 309
331 331 330 329 329 329 329 330 329 327 325 324 322 322 321 320 319 319 318 316 316 317 317 318 318 318 319 319 319 318 318 318 319 320 322 321 322 322 323 324 324 317 324 325 325 325 319 318 321 323 323 325 327 328 328 329 329 328 327 326 326 326 325 322 322 322 321 319 318 317 317 316 316 315 314 314 313 313 312 312 310 310 310 309 309
332 332 331 329 329 328 328 328 327 326 325 324 323 322 322 321 319 319 318 317 316 317 317 317 318 317 317 317 318 317 317 317 317 315 318 318 319 320 321 322 323 323 324 324 325 325 325 320 317 317 316 318 324 327 329 328 329 329 328 327 327 327 326 324 323 322 321 320 318 318 318 317 316 316 315 314 313 313 313 312 311 311 310 309 309
333 332 330 329 327 327 327 327 326 325 324 323 323 322 321 320 318 318 319 318 317 318 317 317 316 315 315 314 315 315 316 315 315 315 316 317 317 318 321 321 321 322 323 323 323 324 324 324 323 321 320 316 321 325 327 328 327 329 329 329 329 327 326 326 324 323 322 321 320 319 318 317 317 316 316 315 314 312 312 312 311 311 311 310 309
333 333 332 331 330 328 326 327 326 325 324 323 323 322 321 320 319 319 319 319 317 317 315 313 312 311 310 311 313 313 313 312 312 312 312 313 315 316 316 318 319 320 321 322 322 322 323 323 321 323 323 320 317 320 323 325 326 328 329 330 331 329 328 328 326 323 323 322 321 320 319 318 318 316 316 315 314 313 313 313 312 311 310 309 309
333 333 332 328 329 329 329 328 327 326 325 324 324 323 323 322 321 320 318 317 315 314 314 313 310 308 310 310 310 312 311 310 310 311 311 312 313 313 314 315 317 318 319 320 320 321 321 322 322 322 322 323 321 315 317 319 319 326 327 328 329 330 330 329 326 324 323 322 322 321 320 319 318 317 316 316 315 314 313 313 312 312 311 310 309
332 332 332 331 330 329 330 330 328 325 323 323 323 320 323 322 321 319 318 316 315 316 314 311 308 307 308 310 311 312 311 310 309 309 311 311 312 312 313 313 315 316 317 318 319 319 319 320 320 320 321 321 322 322 320 317 316 321 325 326 327 329 330 330 330 327 324 324 322 321 320 319 319 319 317 317 316 314 314 314 313 312 312 310 310
333 331 331 331 331 331 330 329 326 323 321 321 321 321 322 322 320 318 317 316 315 317 315 312 310 312 310 307 306 307 312 311 311 310 311 310 311 311 312 312 313 315 316 316 316 317 317 318 318 318 318 319 320 320 320 315 317 313 319 323 326 328 329 330 329 329 327 325 323 322 321 320 320 319 318 317 316 316 315 313 314 312 311 311 310
335 333 331 332 331 330 328 327 326 324 322 321 322 321 322 321 320 317 317 315 312 313 314 312 311 311 306 305 308 307 304 309 313 315 312 311 311 310 311 311 313 314 314 314 314 315 316 316 315 316 316 317 318 318 319 319 316 310 309 312 317 324 326 329 329 330 326 328 327 324 322 321 321 320 319 318 317 316 316 314 313 312 311 310 309
336 335 330 330 330 330 328 328 328 327 325 323 322 323 322 322 321 318 316 315 315 313 312 311 310 312 312 309 307 304 304 308 311 312 316 313 311 311 311 311 312 312 312 312 313 314 314 314 314 314 314 315 315 316 317 317 317 315 313 307 308 315 321 325 328 329 329 329 329 326 324 323 321 320 319 319 318 317 316 315 314 312 312 311 310
335 335 335 330 330 330 330 329 328 328 325 324 323 324 322 320 320 319 317 317 316 314 312 311 310 311 312 314 315 312 311 312 309 307 314 314 315 313 311 311 312 311 311 312 312 312 311 311 312 312 313 314 314 315 315 315 315 315 314 314 312 315 317 320 323 327 328 329 329 328 326 324 324 321 319 318 318 317 317 315 314 312 311 310 310
333 334 334 335 333 332 331 330 329 329 328 326 323 321 321 321 321 319 318 316 315 312 313 313 308 310 310 311 311 312 313 310 307 309 306 312 315 315 313 312 312 311 311 311 311 311 311 310 310 311 312 313 313 313 314 314 312 312 312 313 316 314 314 315 319 322 325 327 327 327 328 324 324 322 321 319 318 318 317 316 315 314 313 311 310
331 331 331 331 331 332 333 333 331 330 327 325 324 324 324 324 321 320 318 317 316 313 313 315 309 308 308 308 307 308 310 311 310 307 305 303 306 312 312 312 311 310 310 310 310 310 310 310 310 310 310 311 312 312 312 312 312 312 311 313 314 313 313 315 315 315 318 323 326 327 328 327 325 324 322 321 319 317 317 316 315 314 313 312 311
329 330 329 330 329 330 332 331 331 331 326 326 326 325 323 322 320 318 318 317 316 315 314 314 315 314 308 306 308 308 308 308 308 307 303 302 303 305 307 311 310 310 310 310 310 310 310 310 310 310 310 310 310 310 310 310 310 310 309 312 314 315 315 315 315 314 314 314 317 321 324 325 324 326 326 324 323 320 318 316 315 314 314 313 311
326 327 327 328 328 329 329 329 329 329 327 329 328 326 324 323 322 320 319 317 316 315 314 315 315 315 316 313 308 306 305 305 306 306 305 305 303 305 307 307 306 308 309 309 308 309 309 309 309 309 309 309 309 309 309 308 308 308 307 308 310 312 315 316 315 314 313 313 313 313 315 319 322 324 324 324 324 323 320 318 316 315 314 313 311
324 324 324 325 325 326 325 326 327 327 327 328 327 326 325 324 323 322 320 318 316 316 314 314 315 315 315 314 312 310 308 306 307 305 305 303 303 304 306 306 305 306 309 310 309 308 308 308 308 308 308 308 308 308 307 307 305 305 305 306 307 309 310 312 313 313 314 313 313 313 314 314 315 319 322 322 322 325 324 321 318 315 314 313 311
321 320 321 322 322 323 324 324 324 325 325 326 326 326 327 327 324 322 321 320 319 316 315 314 314 314 314 314 313 313 312 309 311 310 307 306 307 306 307 309 309 309 311 312 312 310 307 306 308 307 307 307 307 307 307 306 306 302 303 304 306 308 309 310 312 311 311 312 312 313 314 315 315 315 316 319 321 322 322 322 321 316 314 313 311
318 318 320 321 321 321 321 320 321 321 322 322 323 323 323 323 323 325 322 320 320 318 316 315 315 314 313 314 314 314 313 314 313 311 311 311 309 306 307 309 305 307 309 310 309 310 308 307 307 307 307 307 307 307 306 306 305 303 301 301 303 305 306 308 312 312 311 310 311 311 311 313 315 314 315 315 317 318 319 323 323 320 313 312 310
317 318 319 319 319 320 320 319 319 320 319 319 320 320 321 320 321 320 321 323 323 321 319 318 317 316 316 315 314 314 314 314 314 313 312 310 307 306 306 307 308 307 309 309 310 308 309 308 309 308 307 307 307 306 306 305 304 301 299 301 302 303 304 305 307 308 309 310 310 310 311 311 311 313 313 315 316 316 316 317 320 319 313 312 310
316 317 317 317 317 317 317 317 318 318 318 318 319 319 319 319 318 318 318 319 320 322 320 318 317 316 316 315 314 314 314 315 314 313 313 312 311 309 307 304 304 306 305 307 308 308 308 310 307 307 307 306 306 306 305 305 303 301 299 300 300 299 301 303 305 306 307 307 308 308 309 310 311 312 312 312 314 314 314 315 315 315 312 311 309
314 314 314 314 314 314 314 315 316 316 316 316 316 316 316 316 316 316 316 318 318 318 318 319 318 317 316 316 315 314 315 315 314 314 313 312 310 309 308 306 302 300 303 303 305 306 310 308 309 307 307 306 306 305 302 303 304 301 297 299 299 298 299 301 303 305 305 305 306 306 307 309 310 311 310 310 310 311 313 314 313 311 308 308 307
313 313 312 312 312 312 312 312 313 313 314 315 315 315 315 314 314 314 314 315 315 315 316 316 317 317 316 316 315 315 315 316 316 315 313 312 311 310 309 307 306 302 299 299 302 303 306 308 305 307 306 306 305 305 304 303 302 300 301 299 298 298 298 300 301 303 303 304 305 305 306 308 309 308 308 309 309 309 309 307 307 308 307 305 304
310 311 311 310 311 309 310 310 311 311 311 312 312 312 313 312 313 312 313 313 313 313 313 313 314 315 314 314 314 313 314 314 314 314 313 312 311 310 309 308 307 304 303 300 301 305 305 308 307 306 305 305 305 304 303 302 299 299 299 298 298 297 297 298 300 301 301 303 303 304 305 307 306 306 306 305 306 305 305 304 305 303 303 301 299
306 307 307 307 307 308 308 308 309 309 309 309 310 310 310 310 310 310 311 311 310 310 311 311 311 311 311 310 312 311 312 312 313 313 313 312 311 310 309 308 307 306 305 303 299 303 307 304 306 307 304 303 302 302 302 302 300 299 298 297 296 295 294 295 296 298 299 300 302 303 304 307 306 305 305 304 303 304 304 303 301 300 299 298 297
305 305 305 305 305 305 306 306 307 307 307 307 308 308 308 308 308 307 308 308 307 307 308 309 309 309 309 308 308 309 310 310 310 310 310 310 311 310 310 309 308 307 305 303 300 300 305 305 306 306 304 300 299 298 298 299 299 294 296 295 295 292 292 293 294 295 296 298 300 301 302 305 305 304 303 302 303 303 302 300 298 297 297 296 295
303 303 303 303 303 304 304 304 305 305 305 305 306 306 306 306 306 306 306 305 305 304 305 305 306 306 306 306 307 307 308 307 308 308 308 308 309 309 308 307 306 305 304 301 299 299 303 306 305 305 306 304 299 297 296 295 294 294 293 294 294 293 292 292 292 292 294 295 297 299 301 304 304 303 301 301 301 300 299 297 296 295 295 294 294
301 302 301 301 302 302 302 302 303 303 303 304 304 304 303 303 303 304 303 303 302 302 303 302 303 304 304 304 304 304 305 305 306 305 305 305 305 304 304 305 305 305 306 303 301 300 299 303 303 302 297 297 297 295 294 294 293 292 292 291 291 291 291 291 291 291 292 294 295 297 299 302 302 301 300 299 299 296 297 297 295 294 294 294 294
301 301 300 300 300 300 300 301 301 302 302 302 302 302 301 301 301 301 302 301 301 300 300 301 302 302 302 302 302 302 303 302 302 302 302 300 301 300 300 300 300 301 299 301 300 298 298 299 302 301 300 295 295 295 293 293 293 292 291 290 290 290 290 290 290 290 291 293 295 296 298 301 301 299 298 297 297 296 295 294 293 294 294 294 294
299 300 300 300 300 300 300 300 300 300 300 301 301 301 301 301 300 300 300 300 300 300 300 300 300 301 301 300 301 301 300 299 298 298 299 299 298 298 299 299 299 299 300 300 299 299 298 298 300 300 300 298 293 293 292 291 291 290 290 289 290 289 288 288 288 288 290 293 294 295 296 299 299 298 297 297 296 295 294 294 293 293 293 294 294
298 299 299 299 299 299 299 298 299 299 299 299 299 299 300 300 300 300 300 300 299 299 299 299 296 299 299 299 299 298 298 296 296 296 297 296 297 297 297 297 297 298 298 298 298 298 297 296 297 299 298 296 293 290 290 289 289 288 288 287 287 287 287 287 287 288 290 292 293 294 295 298 297 297 297 295 294 293 294 293 293 293 293 292 291
297 298 297 298 297 297 297 298 298 298 298 298 298 298 299 299 299 299 299 299 299 298 298 298 298 298 298 298 297 297 296 295 295 295 296 295 296 296 296 296 297 297 296 296 296 296 296 296 296 295 297 294 292 290 288 289 288 286 285 285 285 286 286 285 286 286 287 288 290 293 296 297 297 296 295 294 293 293 293 292 293 292 291 290 289
295 295 296 296 296 296 297 297 297 297 298 298 298 298 298 298 298 298 297 297 297 297 297 297 297 297 297 297 296 296 295 295 295 294 295 295 295 295 295 295 296 295 295 295 295 294 294 294 294 295 295 295 292 291 287 288 288 287 285 283 282 285 285 285 285 286 286 287 290 293 292 292 293 292 292 292 293 292 292 292 292 290 289 288 289
294 294 294 294 295 295 296 296 296 297 296 296 297 298 297 296 295 295 295 295 295 296 296 296 296 296 296 296 295 295 295 295 295 295 295 294 294 294 295 295 295 294 294 294 294 294 293 293 293 293 294 294 290 287 286 285 284 284 285 285 284 283 283 285 285 285 286 287 287 288 291 291 290 290 291 291 292 292 292 291 289 288 287 288 288
294 294 294 294 294 294 294 295 295 295 296 296 297 296 294 293 293 293 294 294 294 294 294 295 295 295 295 295 295 296 295 291 291 292 292 293 294 293 293 294 293 293 293 293 293 293 292 292 292 293 292 292 292 286 283 283 283 285 285 285 284 284 283 284 285 286 286 286 286 286 285 286 285 286 286 286 288 289 288 288 287 287 287 288 287
293 293 293 293 293 293 293 293 294 295 295 296 294 292 292 292 292 292 292 292 293 293 293 293 293 294 294 294 294 291 290 289 289 290 291 291 291 292 293 293 292 291 291 291 291 291 291 291 291 291 291 291 292 289 287 286 286 286 284 284 283 283 283 283 284 285 286 286 285 284 284 285 285 285 285 285 285 285 284 283 283 285 286 287 287
291 292 292 292 292 292 292 292 292 294 295 295 292 293 293 293 292 291 291 291 291 292 292 292 292 292 293 294 294 292 291 290 291 290 291 291 291 291 291 291 291 291 290 289 290 290 290 290 291 291 290 290 291 290 288 287 286 285 285 284 283 282 281 280 279 282 285 286 285 283 282 285 285 284 284 282 281 281 281 282 285 286 286 286 286
290 290 290 291 291 291 292 292 292 292 292 291 293 293 292 292 291 290 290 290 291 291 292 292 292 292 292 292 293 293 293 293 293 293 292 291 291 291 291 291 291 292 292 290 289 289 289 289 289 290 290 290 291 291 289 287 286 285 284 284 283 282 281 281 281 279 283 286 284 281 280 283 283 281 279 280 280 280 281 284 286 286 286 286 285
289 289 290 289 290 290 291 290 290 290 291 291 292 292 292 291 291 290 290 290 290 290 291 291 291 291 291 291 291 292 293 289 290 292 292 292 291 291 291 291 291 291 292 293 292 290 290 289 289 289 290 290 290 290 289 287 287 285 284 282 283 282 282 282 281 281 283 285 283 279 277 280 281 279 277 279 280 281 282 285 286 286 286 285 284
288 288 288 288 288 289 289 288 289 289 289 290 291 291 291 291 291 291 290 289 289 290 290 291 291 291 291 291 290 290 291 292 292 292 292 292 292 292 291 291 291 291 291 291 290 290 289 290 289 288 290 290 290 291 289 288 286 285 284 282 283 282 282 282 283 282 284 285 281 279 276 278 279 278 276 277 280 281 281 284 285 285 285 284 283
286 286 287 286 287 287 287 287 288 287 289 290 290 290 290 291 291 290 289 289 289 289 290 290 291 291 291 291 290 290 290 291 291 291 291 291 291 290 289 289 289 290 290 290 290 290 290 290 289 289 290 290 290 290 290 288 287 287 286 285 284 283 283 282 281 282 283 284 282 280 275 276 278 276 275 277 279 279 281 284 285 284 284 283 282
286 286 286 286 286 286 286 286 287 287 287 289 289 290 290 290 290 288 288 288 288 288 289 289 290 290 290 290 290 290 290 290 290 291 291 290 289 288 287 287 288 288 289 289 291 291 290 290 290 290 290 290 291 290 290 288 287 286 285 285 284 282 280 279 277 280 280 283 282 280 276 275 277 274 274 277 278 278 279 280 283 283 283 282 281
285 285 285 285 286 286 286 286 286 286 286 287 289 289 289 289 289 287 286 286 286 287 287 288 289 290 290 290 290 289 289 289 290 291 291 290 288 287 287 287 287 287 287 288 290 291 291 291 291 292 292 293 293 293 293 293 288 286 284 282 281 281 279 277 277 278 278 281 282 281 276 274 274 274 273 275 276 276 277 278 279 282 282 281 280
284 284 285 285 286 286 285 285 285 285 285 286 287 288 289 289 288 286 286 286 286 286 287 288 289 289 289 287 287 289 288 288 289 290 291 289 287 287 286 286 286 286 287 288 288 288 290 290 290 290 290 291 291 292 292 292 290 287 284 281 281 281 279 278 276 277 278 280 280 280 276 273 273 274 272 272 273 275 275 277 278 279 280 279 279
283 284 285 285 284 285 285 285 285 285 285 285 287 288 289 289 288 286 286 285 285 285 286 286 287 288 288 288 287 288 288 288 290 291 291 289 287 287 287 286 285 285 286 287 287 287 287 287 286 286 286 287 288 288 288 290 289 286 285 284 283 281 279 278 278 277 275 276 279 281 273 272 272 272 271 270 268 270 273 275 276 275 275 275 275
Wind_Speed
4 4 4 4 3 3 3 3 3 3 3 3 3 3 3 3 3 3 3 3 3 3 3 3 3 3 3 3 3 4 4 4 4 4 5 5 6 5 9 6 7 8 11 12 12 10 10 11 10 9 12 8 9 11 11 10 8 9 8 8 8 7 8 8 7 8 8 8 8 8 8 8 7 7 8 7 6 7 6 6 6 4 4 2 2
4 4 4 4 4 4 3 3 3 3 3 3 3 3 3 3 3 3 3 3 3 3 2 3 4 4 3 4 4 4 4 4 5 5 5 5 6 2 13 9 9 9 11 12 12 11 11 13 13 10 11 9 10 11 11 11 12 10 9 8 9 9 9 10 10 10 9 10 10 10 10 9 9 9 8 8 8 8 6 7 7 6 4 6 5
4 4 4 4 4 4 4 4 4 4 4 3 3 3 3 3 3 3 3 3 3 3 3 4 4 4 4 5 4 4 4 4 4 5 5 5 5 5 7 10 8 7 10 11 14 14 14 14 14 13 13 13 15 15 13 13 13 13 13 12 11 11 11 11 11 11 11 11 11 10 11 10 10 9 10 8 9 9 8 8 9 8 6 4 6
4 4 4 4 4 4 4 4 4 4 4 4 3 3 3 3 3 3 3 3 3 3 4 4 5 5 5 5 5 5 5 5 5 5 6 5 6 6 6 6 9 10 9 9 11 15 15 15 16 16 16 16 15 15 15 15 15 14 14 12 12 12 13 13 12 13 12 13 13 11 11 11 10 10 10 10 10 11 11 9 9 8 7 6 6
4 5 5 4 4 4 4 4 4 4 4 4 4 3 3 3 3 4 4 4 5 5 4 5 5 5 5 5 5 6 6 5 5 5 6 6 6 6 6 6 7 10 12 10 10 11 13 16 18 17 17 17 19 18 18 19 19 16 16 15 15 14 15 14 14 13 12 13 14 14 14 13 13 13 13 12 12 12 11 11 10 10 9 8 6
5 5 5 5 5 5 5 5 4 4 4 4 4 4 4 4 4 4 5 5 6 6 6 6 6 6 6 6 6 6 6 6 6 6 6 6 6 6 7 7 6 6 7 12 13 12 11 12 14 17 18 19 19 19 19 20 16 18 18 18 16 14 15 15 15 15 15 15 15 15 15 15 14 14 14 13 13 13 12 12 12 11 11 10 9
7 7 6 5 5 5 5 5 4 4 4 4 4 4 4 5 4 5 5 5 6 6 6 7 7 7 6 5 6 6 6 6 6 6 6 6 6 6 7 6 7 6 6 7 10 15 14 13 13 13 18 20 20 20 20 19 19 20 19 21 19 18 19 17 17 17 17 17 16 16 17 17 16 16 16 15 15 14 13 13 12 12 11 11 10
8 7 7 7 5 5 5 5 5 4 4 4 4 5 5 5 5 5 5 6 6 7 6 7 7 7 6 6 6 6 6 6 6 7 6 6 6 7 7 7 7 7 6 7 7 9 17 16 14 13 14 18 22 22 21 22 22 22 20 20 19 22 21 18 19 20 19 19 19 18 18 19 19 17 17 17 16 15 15 15 14 14 13 13 12
8 8 8 8 6 5 5 5 5 4 4 5 5 5 5 5 6 6 6 6 7 8 7 7 6 7 6 6 5 5 6 6 6 6 5 7 7 7 7 8 7 7 7 8 7 8 9 15 16 13 14 15 18 23 24 24 24 22 21 24 24 23 21 20 21 21 21 21 20 20 19 19 19 18 18 18 18 16 16 16 15 15 14 14 15
9 9 8 7 5 5 6 6 6 6 6 6 6 6 6 6 6 6 7 7 7 8 8 7 5 4 5 6 6 6 6 6 5 5 6 7 7 8 8 8 7 8 8 8 8 8 8 11 16 16 16 16 16 20 24 26 26 26 25 23 22 23 23 23 23 22 22 22 22 20 21 21 20 18 18 19 19 17 17 17 16 16 15 15 14
9 9 9 6 6 6 5 5 5 6 6 7 7 7 7 7 8 7 7 8 7 7 6 4 3 3 5 7 7 8 6 5 5 6 5 6 7 7 6 8 8 8 8 8 9 9 9 8 7 8 11 19 17 20 23 26 27 29 27 25 23 24 25 26 24 23 24 21 21 23 23 23 20 20 20 20 19 19 18 18 19 18 17 17 16
8 8 8 8 8 6 6 7 8 8 8 9 8 8 9 9 9 8 8 7 6 6 3 2 3 5 7 7 8 8 9 6 7 7 6 7 8 7 8 8 8 8 9 8 8 9 9 9 8 8 8 13 20 21 22 22 23 27 29 28 27 27 25 22 23 22 21 22 23 26 25 24 22 21 21 21 20 21 20 19 19 19 18 17 16
8 9 8 8 8 7 8 9 8 8 8 8 8 8 7 7 7 7 8 8 6 6 5 3 4 6 7 10 10 9 10 10 11 9 9 8 8 9 8 8 9 8 9 8 9 9 9 9 9 9 10 9 10 18 22 23 22 24 27 28 30 29 25 24 25 25 25 22 25 26 26 26 24 22 24 23 23 22 22 20 20 20 19 18 17
8 9 9 9 9 8 9 10 8 6 5 5 6 7 8 8 6 6 6 8 7 5 5 5 5 7 6 6 7 7 9 9 11 11 11 9 10 10 9 10 10 9 8 8 9 9 9 8 9 10 10 9 10 9 11 16 19 24 24 26 29 31 31 29 28 25 25 25 26 28 26 25 25 25 27 26 23 24 24 23 22 22 20 19 19
6 7 8 9 10 9 9 6 5 4 5 6 7 9 9 9 8 7 6 6 7 5 6 8 6 5 5 4 7 7 5 6 8 11 10 10 9 10 10 10 11 10 8 8 8 8 8 8 10 11 11 11 11 11 11 12 14 21 25 23 25 30 33 32 33 28 27 24 26 27 26 25 26 27 26 26 24 25 25 24 22 21 21 20 20
10 9 8 8 8 8 6 6 7 6 7 8 8 9 9 8 8 8 7 7 5 7 7 8 7 4 5 5 3 2 9 5 6 7 11 12 11 10 9 9 10 9 8 9 9 8 7 7 10 11 12 13 12 12 11 12 16 16 17 23 26 28 30 34 33 29 32 29 26 29 29 27 29 28 27 26 26 25 25 25 24 22 22 21 20
9 8 7 8 7 7 7 7 8 8 8 8 10 10 9 7 6 6 8 9 7 6 6 8 9 9 8 3 3 3 6 8 7 8 6 8 10 11 9 9 8 9 8 9 9 8 8 9 9 10 12 12 13 12 13 13 12 12 13 14 15 16 22 27 33 32 33 32 28 28 29 26 28 28 28 28 27 28 27 25 25 24 23 24 21
9 9 8 7 8 8 8 7 7 6 4 6 5 4 5 6 7 8 10 10 8 5 7 6 10 11 12 10 8 8 6 1 4 7 2 5 6 8 9 10 8 8 8 9 9 8 8 9 10 11 12 11 12 12 13 14 13 11 11 13 19 22 22 23 24 30 34 34 32 31 25 28 27 30 28 28 28 27 27 26 25 26 26 25 24
8 7 8 6 7 8 9 8 8 7 7 7 8 8 8 9 9 9 9 7 7 9 10 6 4 8 9 11 10 9 7 5 7 6 13 6 6 6 7 7 8 9 10 10 10 9 8 9 11 12 12 11 11 12 11 12 16 16 18 18 22 22 23 24 25 27 29 33 34 33 32 28 28 27 29 30 30 29 29 27 27 26 25 25 25
6 7 8 9 8 7 7 7 8 9 8 8 9 10 9 7 7 7 6 6 8 9 9 9 7 5 8 9 9 10 11 10 8 9 11 14 13 8 8 7 8 11 11 10 11 11 11 10 10 11 11 11 11 11 11 11 11 13 14 20 20 22 23 25 25 25 26 28 33 34 33 33 30 26 28 29 29 30 30 30 28 26 25 24 24
6 7 6 7 7 7 7 7 7 7 5 5 6 6 6 7 7 8 8 9 9 9 8 10 10 10 4 6 8 9 8 8 9 9 10 11 16 11 11 8 10 12 10 11 11 11 11 11 11 12 10 11 11 11 11 11 12 11 14 17 21 23 24 24 24 25 25 25 27 29 32 35 35 32 26 27 31 30 31 30 28 27 26 24 23
6 6 5 7 8 7 8 9 9 9 7 9 7 8 9 9 11 11 11 11 9 10 10 10 9 10 10 7 6 5 5 6 8 9 9 11 14 16 10 12 13 10 8 10 11 12 12 11 12 12 12 11 10 11 11 11 11 11 14 19 20 22 25 26 27 28 25 26 26 26 26 26 30 34 31 29 29 30 30 30 30 29 25 23 23
4 5 6 6 6 7 7 9 9 7 7 7 8 6 5 6 7 8 9 10 9 9 10 11 10 10 11 9 9 8 9 10 9 8 9 9 9 14 13 10 12 16 13 9 11 12 12 11 13 13 12 12 11 11 11 11 14 15 19 19 20 20 22 24 26 27 25 24 25 25 25 24 24 28 30 32 30 27 28 28 29 29 27 24 21
5 5 5 6 6 7 7 8 7 7 7 7 9 8 7 6 6 6 7 9 10 9 9 11 12 10 11 10 10 10 10 10 8 8 10 9 11 16 15 13 12 13 12 10 10 12 11 13 13 13 13 11 12 11 11 11 12 19 17 20 21 22 22 24 25 26 25 24 23 22 23 24 23 22 25 27 31 32 30 32 29 28 27 24 22
4 4 5 5 5 6 6 5 6 6 7 7 7 8 8 8 8 7 7 8 8 10 10 11 11 11 11 11 11 11 12 11 9 9 9 10 10 12 14 9 13 16 13 8 11 7 10 11 12 13 12 12 11 10 10 11 11 14 18 15 21 22 23 22 26 29 30 29 26 24 23 22 24 25 24 25 28 30 29 27 26 26 25 22 20
5 5 4 5 5 5 6 7 7 7 7 8 8 8 8 9 9 9 9 8 7 9 9 10 10 12 11 10 10 10 10 9 11 10 10 9 10 12 12 11 12 14 13 10 11 11 10 9 11 11 11 12 11 10 10 11 11 16 18 14 16 21 20 21 23 24 26 27 29 24 24 25 24 26 28 30 30 28 28 30 27 26 23 22 22
4 4 4 5 6 6 6 7 7 7 7 7 6 6 6 6 7 8 9 9 8 6 6 7 9 10 10 10 9 10 10 9 8 10 9 10 11 10 8 13 14 13 13 12 13 15 17 8 9 11 11 10 10 9 10 9 13 17 15 12 11 16 18 20 20 23 24 25 27 27 25 25 24 23 25 29 30 32 32 30 28 22 24 23 21
4 4 5 5 5 5 6 6 7 7 7 8 8 7 7 8 8 8 9 6 7 9 9 8 9 8 8 8 8 10 9 10 9 9 10 9 8 8 9 10 12 16 15 15 15 16 10 9 8 10 9 10 9 9 10 13 10 13 13 9 9 10 17 18 21 22 23 23 24 26 26 28 22 24 24 23 26 28 28 31 29 25 24 24 24
4 4 5 5 5 5 5 5 6 6 6 7 7 7 7 7 7 8 9 9 9 9 9 9 9 10 10 11 10 9 8 7 8 9 10 9 9 9 9 11 10 12 14 15 20 17 10 5 8 5 9 9 9 7 8 8 10 12 8 7 8 9 13 16 20 22 22 22 22 23 25 23 20 20 21 19 17 14 13 11 11 20 24 19 18
5 4 5 5 5 5 5 5 5 5 6 6 6 7 7 7 8 8 7 7 8 8 9 9 9 8 9 9 8 9 9 9 10 8 8 8 8 9 10 10 10 13 12 14 19 19 13 7 6 8 3 7 6 6 6 6 9 11 6 7 8 9 14 14 17 19 20 20 21 22 23 21 18 17 16 14 16 16 16 15 17 20 22 22 19
5 5 5 5 5 5 5 5 5 5 5 6 6 6 6 7 7 7 7 7 8 9 8 8 8 8 9 10 9 10 10 10 10 10 10 10 9 8 8 8 9 11 13 12 15 21 13 9 6 4 3 4 3 4 3 4 5 7 6 6 7 12 13 10 13 17 18 19 19 20 21 22 19 18 17 17 18 19 18 20 21 22 21 19 17
5 6 5 5 6 6 5 5 6 6 6 5 5 5 6 6 6 7 7 7 8 9 9 9 7 8 10 11 11 10 10 9 10 9 9 8 9 10 10 11 11 11 11 12 15 23 19 9 11 8 4 4 5 6 7 6 6 6 6 6 8 9 6 8 12 16 17 18 19 19 20 19 18 19 19 19 20 21 22 21 21 20 19 17 12
5 5 5 6 6 6 6 6 6 6 6 6 5 5 5 6 6 7 7 8 9 10 9 10 9 9 10 10 11 11 11 11 10 9 10 10 10 9 9 8 9 7 7 10 14 18 20 13 9 12 9 7 6 6 7 6 5 6 6 5 5 5 6 6 7 11 14 16 17 17 19 18 18 16 18 18 20 21 21 20 18 17 16 12 9
4 4 5 5 5 6 6 6 6 6 6 6 6 5 6 6 7 5 6 9 9 10 9 10 10 8 9 11 12 12 10 11 11 11 10 10 9 9 10 9 11 12 11 13 15 16 22 18 10 5 5 4 9 4 7 8 7 5 6 5 4 5 7 6 6 6 12 15 17 18 18 18 17 18 16 18 21 19 20 20 19 16 13 10 11
4 4 5 5 5 5 5 5 6 6 6 6 5 6 6 7 7 7 7 8 9 9 10 11 10 9 10 10 12 11 9 10 10 10 10 10 9 10 12 9 10 11 7 8 10 14 17 18 13 9 8 4 8 7 6 7 6 5 7 7 7 5 5 6 6 5 10 16 19 19 19 19 20 20 19 19 21 22 20 18 14 11 10 11 13
5 4 4 5 5 5 5 6 6 6 6 6 6 5 7 7 7 8 8 7 7 9 10 10 10 9 10 11 11 10 9 10 10 9 9 9 10 10 12 11 11 13 11 11 12 14 15 19 20 13 9 10 7 7 3 3 5 6 6 5 3 6 4 4 5 6 8 15 17 19 20 19 25 24 22 20 21 21 19 15 13 11 12 12 12
6 5 5 5 5 5 5 6 7 6 6 6 7 7 7 6 7 7 8 8 8 9 9 10 10 10 11 11 11 9 9 10 12 10 8 10 10 10 11 10 10 11 11 11 12 12 14 17 18 14 10 8 5 2 4 5 4 4 2 4 4 4 3 3 4 5 8 14 16 17 18 18 22 21 22 23 20 17 15 15 15 15 13 14 18
6 5 6 5 5 6 6 6 6 6 6 6 7 7 7 7 7 8 8 8 8 8 9 10 10 9 10 11 11 10 10 11 12 11 10 11 11 11 12 11 11 10 12 12 11 12 14 15 16 16 13 10 8 7 5 7 6 5 3 2 1 2 4 5 5 4 4 6 6 9 12 15 16 20 23 21 19 18 17 16 15 13 18 19 17
5 5 5 5 4 5 6 5 6 6 6 6 6 7 7 7 7 8 8 9 9 9 8 9 9 10 11 11 11 11 11 11 12 12 11 11 11 12 12 12 12 12 12 12 11 12 13 14 14 14 14 11 8 9 3 6 6 5 6 3 5 5 5 6 5 4 5 5 4 6 7 6 13 14 19 19 19 19 18 16 17 21 19 18 17
3 4 5 6 5 5 5 5 6 6 6 6 6 6 6 7 7 8 8 9 10 10 9 9 9 10 10 11 11 11 12 11 11 11 11 11 10 12 11 10 11 12 12 11 11 11 12 12 13 14 11 13 5 0 3 3 3 3 5 8 10 6 6 6 7 6 5 6 3 6 10 13 16 16 19 18 18 18 19 20 22 20 19 17 17
4 4 5 5 6 6 5 5 5 5 5 5 4 4 6 8 8 9 9 9 9 10 11 10 9 10 10 10 11 11 11 13 16 16 16 15 13 14 14 10 10 11 12 10 10 11 11 12 13 11 12 12 10 5 6 7 9 11 7 7 7 4 5 5 4 4 5 7 6 8 8 9 9 8 7 7 9 16 18 19 17 21 20 18 17
4 5 5 5 6 6 6 6 5 5 5 5 6 8 7 7 9 8 9 9 9 10 10 11 10 9 10 11 11 14 16 17 17 18 19 19 20 17 15 13 12 11 12 12 11 10 10 12 12 12 13 13 12 8 9 10 6 3 4 7 7 5 5 5 4 3 6 9 9 10 8 7 10 8 8 9 8 11 9 9 9 12 15 18 18
5 5 5 6 5 6 6 6 6 6 6 5 9 9 10 11 9 9 9 9 9 9 9 10 12 12 10 10 10 11 12 13 14 17 17 19 20 21 23 22 19 16 14 14 14 11 11 12 12 12 12 14 13 8 9 7 6 9 9 8 9 7 9 10 9 3 4 10 9 8 7 7 9 9 7 7 8 10 9 9 17 18 18 18 18
5 6 6 6 6 6 6 6 7 6 6 8 12 11 11 12 11 9 9 9 9 9 9 10 10 10 12 11 10 9 9 11 12 12 15 18 19 21 22 22 21 22 21 17 15 13 12 12 13 14 13 13 13 9 7 5 7 7 9 9 10 11 8 9 10 10 7 10 10 9 7 3 6 9 7 7 8 7 9 15 20 19 19 19 18
7 6 7 7 7 7 7 8 8 8 8 9 12 13 13 13 13 12 9 9 10 11 10 11 11 12 11 11 12 9 8 12 12 12 12 14 16 20 21 22 22 22 21 23 22 17 13 14 15 16 14 12 11 11 7 7 8 10 8 8 9 10 12 10 9 6 9 9 10 9 8 4 7 9 8 6 8 8 11 16 20 20 20 19 18
6 7 6 9 8 7 8 9 10 9 9 10 13 14 14 14 13 12 10 11 11 12 12 11 11 12 11 11 12 12 11 10 10 12 12 13 13 13 12 11 11 14 17 19 20 22 19 16 15 16 15 11 13 12 8 7 9 11 10 11 10 8 11 11 7 7 8 10 13 11 6 5 7 10 7 6 7 8 7 15 20 20 19 18 17
5 7 8 8 9 7 9 8 9 10 9 12 14 15 14 13 14 13 10 10 11 12 12 11 12 12 12 11 11 12 13 12 9 11 12 13 13 13 12 13 13 12 12 11 10 11 12 12 13 14 16 14 13 12 11 7 12 12 13 14 14 12 7 7 7 9 10 9 11 12 8 6 6 9 7 8 7 8 6 14 19 19 18 17 17
5 6 6 6 8 9 8 8 10 13 12 13 14 15 15 13 16 11 9 10 11 12 13 12 12 11 11 11 11 12 13 13 13 15 14 13 13 15 16 14 14 12 12 11 14 16 14 13 12 13 12 13 14 12 10 8 8 5 4 5 6 8 9 8 10 10 11 8 10 10 7 6 5 10 6 6 7 8 6 6 16 18 17 16 15
6 7 8 8 8 8 10 8 9 12 13 14 13 16 17 16 12 9 9 9 11 12 12 12 11 12 12 11 11 12 13 13 14 16 17 16 13 16 15 16 14 13 12 10 13 18 19 20 22 23 23 24 23 24 22 21 12 9 8 8 10 10 10 8 7 11 10 9 7 7 11 9 6 10 9 6 6 7 6 6 6 14 16 15 14
9 8 8 9 9 7 8 10 10 11 14 17 17 15 16 16 12 10 9 9 11 11 11 12 10 10 13 17 14 12 13 14 17 18 18 15 12 14 14 15 17 16 13 9 8 10 15 18 20 21 20 21 21 22 24 17 18 14 12 14 13 12 11 11 9 9 8 8 7 10 10 7 9 9 10 6 7 4 6 5 6 9 15 13 14
8 7 7 9 11 11 9 9 13 13 12 16 19 17 16 16 12 7 9 9 10 11 10 12 11 11 11 12 16 15 14 16 21 20 20 15 12 12 13 13 15 17 15 12 12 12 10 9 9 10 11 13 13 12 11 17 20 17 13 12 12 13 12 11 11 10 8 5 7 12 11 7 11 8 12 7 4 3 1 4 7 8 8 7 7
Wind_Direction
191 193 196 201 196 193 199 196 192 196 187 209 199 205 215 223 221 225 224 233 224 218 238 247 249 241 245 249 250 254 265 272 275 273 268 269 273 188 201 238 258 255 248 245 241 227 230 235 242 235 240 232 226 233 194 179 202 225 224 224 229 223 227 235 229 227 224 219 217 213 208 204 204 214 204 202 199 186 197 192 168 166 177 176 136
195 203 199 197 201 187 205 210 195 201 190 209 201 213 213 211 225 228 230 238 246 238 236 239 239 255 244 248 240 253 252 252 255 259 259 261 260 208 187 206 239 250 246 246 224 228 221 235 245 235 242 225 220 223 234 219 198 214 231 228 231 231 222 226 225 229 232 227 222 218 217 215 212 218 226 214 209 194 200 210 191 182 205 188 185
213 203 204 201 201 199 207 205 206 201 198 207 196 214 217 221 212 222 223 229 234 232 228 251 242 238 237 238 243 245 251 257 257 254 258 254 252 255 184 205 222 249 255 244 233 237 236 236 237 230 224 238 221 226 236 235 215 208 213 214 220 227 231 226 224 229 228 233 232 225 229 224 209 215 230 223 222 210 207 218 207 194 214 205 192
225 212 219 206 209 208 208 210 210 202 198 205 191 207 222 224 214 233 253 245 245 237 231 247 246 241 237 231 234 243 244 240 242 246 248 253 257 249 247 195 205 232 249 255 244 241 243 240 239 242 240 239 236 242 237 242 227 222 216 221 222 230 228 228 226 227 231 229 234 229 226 231 228 219 230 228 224 219 215 217 219 213 199 217 202
219 222 217 223 219 216 214 213 214 208 198 197 193 201 217 220 212 218 231 239 243 239 229 244 252 249 238 229 233 233 235 241 237 237 238 238 243 253 255 253 233 203 226 245 252 244 245 242 244 243 246 238 237 244 244 225 226 233 221 218 233 233 228 228 229 229 228 233 231 230 232 228 227 226 224 229 228 227 224 220 223 225 220 223 217
242 221 222 226 224 220 222 217 216 213 199 185 196 207 220 215 222 212 227 230 233 232 229 227 235 240 235 230 231 234 234 231 233 236 234 235 238 239 242 248 245 234 212 225 239 245 244 249 254 244 243 248 252 250 241 239 236 220 226 217 222 223 225 224 228 227 230 232 235 234 233 233 232 230 227 231 231 232 231 229 228 230 229 229 232
232 240 232 235 228 225 219 223 217 203 198 200 207 216 216 221 217 227 230 230 242 242 236 238 235 235 235 229 231 235 235 237 236 235 235 237 239 242 243 242 243 243 231 225 220 231 239 237 243 250 247 246 249 248 246 245 241 239 243 217 217 209 212 219 223 224 225 225 230 234 234 233 232 232 234 232 232 232 236 238 238 240 241 238 239
238 236 243 239 235 232 227 223 211 191 199 207 218 224 215 220 224 222 235 238 241 243 236 239 243 245 236 236 238 235 239 234 236 240 238 236 237 241 241 241 243 244 248 242 241 222 221 231 236 239 250 251 246 246 247 242 240 239 240 223 218 213 231 241 227 229 225 221 226 228 227 232 231 227 228 231 233 234 235 238 237 240 243 248 243
241 242 242 242 239 236 239 236 213 202 208 215 218 228 228 216 224 219 227 243 241 245 245 243 244 247 248 244 242 247 247 244 240 240 243 243 244 243 243 243 243 241 243 247 247 253 224 215 226 231 238 245 249 247 247 245 242 239 237 239 246 244 238 224 231 233 232 230 223 228 231 231 234 234 235 235 234 232 233 233 236 239 241 245 249
228 235 241 237 234 230 233 217 206 214 218 219 225 225 228 220 223 220 222 234 245 246 244 240 244 253 258 254 247 244 248 250 253 251 247 244 242 243 244 247 241 238 236 236 239 240 245 221 221 230 235 238 242 247 247 246 246 248 251 252 251 242 240 239 233 235 235 231 229 226 228 231 227 227 231 234 236 235 235 235 234 235 239 240 244
232 235 238 227 225 229 230 217 213 219 222 223 224 222 222 221 225 230 226 230 239 247 253 249 238 245 254 259 259 250 248 245 254 255 249 247 248 246 249 245 246 241 239 237 236 236 236 244 236 221 231 234 237 239 244 246 247 252 256 251 243 240 243 247 244 236 235 232 226 229 232 235 234 224 227 232 232 234 235 237 239 237 235 239 242
226 231 230 242 245 232 219 220 216 215 216 220 219 212 210 217 226 230 234 230 228 240 229 238 271 270 270 266 256 253 246 242 241 237 232 240 244 244 243 245 243 241 240 240 240 238 237 238 240 243 236 232 232 237 240 243 247 251 254 256 252 250 253 254 252 247 240 236 228 229 234 234 230 228 231 231 232 232 231 233 235 237 240 240 240
214 217 223 218 223 224 223 225 215 217 223 223 217 219 218 219 225 219 228 231 225 222 227 215 267 272 253 251 249 239 240 236 239 235 230 229 230 237 236 238 239 237 236 237 239 236 238 236 239 239 240 245 234 228 235 239 242 247 249 252 254 254 249 247 249 246 244 234 236 232 222 225 229 224 227 230 228 230 231 232 232 234 234 233 234
217 211 217 222 232 232 235 238 232 212 212 224 231 229 232 224 214 225 212 224 238 208 204 165 233 243 271 272 258 247 228 222 230 232 231 224 227 232 233 234 233 233 233 234 234 233 233 234 234 236 237 239 243 246 232 232 238 240 244 248 251 253 252 251 252 248 246 241 237 235 234 228 226 221 223 225 230 230 230 231 233 234 234 233 228
205 207 216 218 223 225 229 211 185 196 222 231 233 234 226 222 215 220 229 218 234 229 208 184 236 236 246 288 279 297 263 226 221 234 227 223 225 226 230 233 234 232 231 233 232 231 230 229 231 233 237 238 242 244 245 241 233 232 237 241 247 250 253 254 255 254 252 243 238 236 233 230 228 230 226 227 225 228 227 224 228 229 231 229 229
225 211 215 221 223 225 225 218 218 193 209 224 230 230 220 220 214 213 221 243 207 227 208 201 213 215 262 212 279 313 297 261 265 240 214 225 218 224 221 226 228 230 230 230 233 235 231 225 230 233 236 240 240 242 243 244 244 238 235 239 244 248 252 255 256 254 254 246 241 235 235 230 229 229 225 221 222 229 227 224 224 224 224 226 228
229 219 218 224 228 234 236 235 235 230 218 223 228 224 211 210 207 215 218 228 233 228 216 206 216 212 233 263 246 244 230 274 295 275 243 232 223 225 219 223 220 221 223 230 233 234 234 233 231 234 238 238 237 239 241 241 246 246 247 245 246 250 254 255 256 257 256 254 253 251 243 233 231 230 227 221 218 224 226 224 224 220 221 222 220
248 242 225 208 227 223 226 233 234 234 232 234 253 270 249 230 218 218 226 226 241 229 243 202 211 216 224 235 243 262 283 299 24 290 164 242 261 228 226 220 220 222 224 227 225 225 222 233 239 243 239 237 237 234 237 241 242 243 242 244 242 246 248 253 257 258 258 256 254 256 251 249 238 238 234 227 222 222 223 223 225 221 220 222 222
272 272 270 237 215 223 226 229 231 228 221 227 234 234 238 231 224 209 213 205 205 240 241 238 202 228 225 236 249 258 265 272 256 297 290 264 227 252 228 223 221 222 229 226 225 226 226 227 235 240 242 240 238 236 238 242 240 242 242 242 246 245 247 248 250 253 256 259 261 261 258 248 244 235 232 227 223 221 219 216 218 221 223 222 224
277 282 282 279 280 276 266 250 238 238 227 211 212 217 227 228 218 218 222 221 219 223 237 232 216 233 206 230 240 250 253 254 257 259 271 291 285 255 243 227 235 236 235 233 229 227 231 231 236 237 239 235 236 241 241 243 243 240 242 243 243 246 247 249 247 246 248 255 259 261 262 259 253 245 235 231 234 229 223 215 214 215 220 219 219
268 271 268 275 279 274 270 265 259 256 243 240 246 245 239 237 227 227 226 226 220 219 223 232 234 244 178 227 230 233 232 235 248 245 255 271 275 270 266 243 236 244 239 235 235 233 230 233 236 236 236 237 236 242 242 240 242 241 241 239 241 243 244 246 246 245 246 245 251 256 259 261 258 253 249 237 231 233 234 228 217 213 214 219 223
277 279 288 280 275 277 275 274 273 270 271 271 260 239 228 226 226 223 220 220 218 227 232 238 237 244 239 228 208 219 247 252 239 234 240 239 262 279 273 283 276 253 222 241 240 238 233 230 236 240 240 241 236 238 239 236 237 243 240 239 239 241 245 247 248 248 242 245 245 247 252 257 261 259 255 252 238 229 231 229 216 214 214 212 213
282 284 279 279 279 281 280 278 282 285 275 273 272 268 258 248 243 240 236 232 235 233 235 241 243 245 243 240 246 232 231 237 233 210 222 240 250 264 271 244 253 278 261 235 241 240 233 226 235 240 238 240 237 236 235 237 236 239 239 237 237 238 240 243 245 245 244 243 245 244 245 246 250 256 257 252 253 246 228 223 220 213 211 206 207
280 281 276 275 278 278 280 281 279 282 284 282 281 276 274 256 243 241 242 236 235 232 233 237 237 243 244 242 243 241 240 233 236 227 230 242 243 263 271 282 281 266 277 276 248 242 230 228 232 236 237 238 240 236 237 237 240 238 237 237 237 239 238 239 241 245 248 250 249 247 245 245 245 246 249 256 254 251 249 233 219 216 208 199 201
261 270 275 272 272 273 268 275 285 282 283 286 285 286 282 279 273 252 236 239 234 229 233 236 235 235 238 238 241 242 243 246 245 244 247 251 251 264 268 277 276 287 282 276 277 249 226 227 228 233 235 240 241 239 236 236 240 240 235 238 234 239 238 239 244 248 249 249 249 250 250 247 246 244 244 245 249 254 249 246 226 214 205 194 195
298 293 301 313 304 301 299 286 278 283 290 291 292 293 298 293 294 289 284 269 247 242 241 243 240 241 245 250 245 246 249 246 246 246 247 250 254 255 272 275 270 276 287 281 272 280 254 225 230 232 230 237 240 238 233 236 240 244 240 237 238 239 240 239 241 246 247 250 251 249 248 249 247 245 244 243 245 241 242 238 230 211 194 192 200
303 311 324 320 313 306 299 296 293 287 285 283 284 282 275 274 273 276 278 282 286 271 256 251 255 256 251 247 252 250 255 256 253 256 256 253 255 257 262 278 284 278 275 278 278 252 266 258 220 227 225 228 233 232 232 237 240 243 244 240 244 243 240 239 240 243 245 247 249 252 252 251 246 241 239 245 244 244 241 230 218 201 193 187 203
310 314 317 311 307 304 300 295 296 292 287 285 283 283 285 282 281 280 278 280 279 278 279 275 270 267 265 262 259 257 253 250 248 251 254 257 256 257 258 261 272 285 288 288 280 271 256 255 254 219 220 220 226 226 227 235 242 249 247 242 242 244 238 238 241 242 243 245 249 250 250 249 239 234 233 234 239 240 236 233 223 206 187 186 190
319 324 314 311 307 307 303 300 299 298 298 296 294 290 289 286 282 285 285 286 285 284 282 278 277 276 272 269 270 275 269 266 261 254 253 249 246 250 243 246 246 259 277 285 285 283 280 213 256 248 202 216 220 216 231 232 236 239 243 233 237 241 241 235 238 241 241 244 246 249 250 239 220 223 227 221 211 191 184 177 174 188 188 174 165
322 317 319 319 319 315 310 310 308 306 304 303 299 296 293 287 286 285 288 290 288 287 283 284 283 282 279 279 275 274 272 273 270 269 266 258 250 244 244 237 231 241 252 267 277 280 282 272 229 273 198 224 215 224 216 226 231 233 237 229 233 239 240 230 233 238 240 241 244 247 251 244 212 208 199 184 172 158 151 156 146 133 141 146 155
338 337 330 331 330 330 322 316 314 314 312 309 309 302 299 294 293 291 291 292 288 284 285 285 285 287 284 281 278 274 276 274 271 268 263 260 257 254 246 239 236 236 249 253 268 272 267 270 269 221 239 211 214 229 226 229 230 219 220 227 235 244 246 242 236 239 240 242 242 245 249 245 220 204 187 166 162 159 151 147 137 134 137 159 173
342 335 334 334 334 332 331 322 317 316 313 311 311 306 301 295 295 292 292 295 291 286 286 284 285 280 278 276 273 273 276 275 271 268 267 261 259 259 254 251 245 236 235 243 248 267 273 260 279 267 215 216 204 219 228 233 235 222 224 221 234 244 239 238 234 233 237 240 241 243 245 241 224 217 189 169 173 171 154 149 139 141 153 164 170
346 341 339 344 338 335 330 325 323 319 317 314 312 307 299 294 293 292 295 293 287 285 285 285 282 281 282 280 278 277 277 275 273 274 273 274 270 264 261 256 257 244 234 245 255 267 276 266 256 269 266 263 254 209 236 245 244 237 226 231 229 228 232 234 238 231 234 235 238 239 241 237 217 202 192 174 168 160 155 152 151 149 158 164 168
346 339 345 342 340 334 328 323 318 317 313 313 314 311 304 302 295 295 291 290 289 286 287 285 284 283 281 278 279 278 278 276 276 274 271 272 268 267 263 257 256 255 235 240 247 257 269 281 262 247 280 175 259 165 212 231 242 235 237 234 227 220 228 232 232 230 223 230 233 234 237 231 203 184 177 165 157 148 155 160 154 152 159 170 187
344 350 342 341 335 330 322 320 318 313 312 309 307 300 294 289 289 287 286 288 287 288 286 285 286 286 282 277 278 280 279 276 273 273 276 273 273 269 268 262 262 263 256 246 261 264 271 276 279 272 270 239 226 239 212 221 237 223 236 231 225 227 227 226 229 229 225 226 227 229 229 223 192 171 166 177 161 155 157 154 148 157 177 193 199
349 346 340 337 333 326 325 320 321 318 314 311 302 295 291 288 287 286 285 283 281 286 288 287 289 287 285 285 281 283 283 279 278 276 273 270 267 267 266 263 260 263 260 253 246 260 269 279 278 274 268 272 245 238 220 194 213 223 228 244 228 228 225 218 221 224 224 229 227 230 229 218 189 176 178 179 171 163 161 150 156 170 177 190 180
348 345 342 342 334 332 328 327 323 320 315 312 310 304 300 295 291 289 289 288 285 281 282 285 286 285 283 279 282 283 282 279 279 276 273 272 269 265 266 266 261 261 260 252 253 251 260 265 275 275 267 251 264 193 183 200 217 212 202 215 224 233 221 218 226 228 231 232 234 231 235 206 177 176 176 172 168 160 150 153 156 170 181 152 142
341 343 343 337 338 326 322 320 314 310 312 308 303 300 297 299 296 292 288 285 285 286 286 285 283 280 281 280 281 281 277 275 276 279 276 272 272 267 266 267 263 262 262 259 253 253 253 261 266 277 271 259 255 235 189 195 208 208 195 212 232 218 206 221 220 212 209 213 221 221 207 175 173 171 170 167 164 153 152 159 173 163 140 140 140
332 330 328 322 318 314 307 309 305 305 305 304 301 300 302 302 302 297 294 290 284 283 277 277 279 278 275 277 279 277 274 272 275 277 279 275 270 270 267 266 266 262 261 261 257 254 255 260 264 263 271 265 248 257 186 195 215 208 207 184 228 212 213 207 213 194 193 203 209 167 157 137 152 158 163 162 157 154 161 167 150 137 139 141 145
320 316 316 317 307 301 300 296 299 299 296 296 294 300 309 309 305 296 290 289 287 284 280 276 274 274 272 272 272 270 269 270 270 274 273 276 277 274 269 264 266 264 261 263 261 256 258 258 260 267 260 269 253 108 91 156 196 231 203 206 230 209 197 205 200 189 186 170 136 130 137 143 151 158 161 159 160 162 153 141 136 137 140 147 149
308 305 300 301 300 294 287 285 286 285 284 283 288 303 310 305 300 297 293 287 285 285 284 282 276 274 275 273 271 271 268 268 267 268 268 268 276 279 275 270 265 267 268 263 262 260 258 259 263 261 265 261 254 207 191 194 202 219 209 197 232 199 186 186 205 180 172 160 147 137 134 147 135 149 152 144 150 144 140 132 133 138 145 149 149
303 300 297 288 283 282 289 288 283 281 276 276 271 275 282 291 298 293 290 285 284 283 284 285 281 273 271 273 271 268 268 268 268 266 266 265 260 258 268 274 270 266 267 268 263 260 259 260 259 262 261 260 256 231 229 228 216 205 161 194 206 192 171 194 176 187 167 155 152 152 147 148 141 134 140 134 128 123 116 115 131 140 149 149 147
297 297 288 286 288 292 291 288 285 279 274 274 277 279 286 289 291 293 291 290 283 278 277 279 283 285 277 271 273 274 271 267 266 264 263 263 264 263 261 259 259 259 267 267 265 261 260 258 264 260 257 262 258 241 229 228 195 202 205 195 201 178 177 171 185 137 201 160 154 134 137 148 143 135 122 107 109 109 112 124 142 146 149 148 145
304 294 290 295 297 293 287 284 284 287 285 277 279 284 289 292 289 288 290 287 282 280 277 276 279 283 284 283 277 274 272 271 272 273 272 268 266 265 263 262 260 257 253 253 263 267 260 262 261 258 259 255 264 252 238 204 209 203 209 199 200 189 182 195 179 184 175 160 147 141 118 101 116 110 93 101 105 102 125 141 146 149 147 145 146
304 305 307 305 300 299 298 300 298 291 287 287 289 290 292 291 287 288 285 281 281 278 277 276 278 281 283 285 288 281 276 272 272 271 271 274 269 265 262 264 263 261 260 258 254 252 260 260 262 264 257 262 261 258 226 213 199 211 197 196 204 198 201 198 186 150 155 158 132 125 117 126 123 113 95 103 119 127 138 145 148 149 146 146 147
314 312 308 304 301 305 306 300 295 295 289 294 293 294 294 293 288 289 284 283 278 275 274 273 274 277 276 282 287 289 287 280 276 277 277 275 278 277 274 268 265 261 258 255 257 257 253 252 256 262 265 260 257 261 247 203 200 209 197 208 199 194 200 200 171 141 144 157 153 138 114 133 138 123 113 117 124 124 125 147 149 148 147 146 147
309 311 309 312 305 301 301 299 295 294 288 290 295 295 294 289 291 292 286 283 280 277 275 271 270 270 274 275 275 279 285 285 278 275 280 283 285 283 279 277 271 269 266 263 258 256 255 253 253 256 262 261 262 263 263 222 214 212 201 202 193 193 163 99 102 141 155 165 150 143 142 146 151 119 119 128 121 119 131 147 146 147 146 147 148
298 291 294 290 297 300 298 300 299 297 298 297 294 294 294 289 294 292 284 282 281 280 278 275 272 271 271 271 274 276 278 279 277 275 275 280 285 286 284 280 277 272 266 258 254 256 255 256 256 256 259 260 260 262 261 240 213 194 108 95 115 133 139 149 154 158 160 171 166 149 121 115 131 115 111 117 116 117 127 129 147 145 145 147 147
291 298 301 300 297 298 302 302 299 297 298 297 293 290 290 283 283 281 281 279 278 278 277 277 274 273 270 267 267 270 274 275 275 274 276 280 282 283 283 282 280 278 275 271 255 254 256 255 256 256 260 265 266 268 267 252 211 164 151 152 164 154 151 158 157 162 170 157 172 140 126 114 132 121 111 114 112 118 118 120 129 146 143 144 143
312 306 299 301 305 299 300 306 303 300 297 298 296 290 288 288 271 277 279 280 280 281 281 277 277 274 273 269 262 265 271 275 277 276 274 272 275 277 281 283 284 285 282 278 270 259 252 253 257 260 262 265 265 265 265 233 188 164 172 182 172 164 176 170 155 160 146 162 160 136 116 118 125 123 110 93 79 59 114 118 128 140 140 138 141
301 300 307 309 310 307 304 301 301 299 297 300 302 304 299 294 288 271 276 275 281 283 288 288 287 284 279 277 273 267 265 271 277 280 279 274 272 275 279 282 281 283 285 289 282 280 274 267 258 262 264 262 260 253 240 209 189 183 190 182 163 174 172 165 158 143 119 172 163 146 118 138 131 143 129 117 83 22 35 125 128 129 133 128 131